Location: Royer Oaks
(36.2112°N, 118.8127°W)
Time: 08:54:50
(UTC-07:00)

X-37B - Visible Passes

Search period start: 04 August 2021 00:00
Search period end: 14 August 2021 00:00
Orbit: 383 x 392 km, 45.0° (Epoch: 01 July)

Date Brightness Start Highest point End Pass type
(mag) Time Alt. Az. Time Alt. Az. Time Alt. Az.
04 Aug 2.6 04:29:37 18° NW 04:30:57 23° NNW 04:33:35 10° NE visible
05 Aug 3.0 03:33:44 23° NNE 03:33:44 23° NNE 03:35:21 10° NE visible
05 Aug 3.2 05:07:31 10° NW 05:09:41 17° N 05:11:51 10° NE visible
06 Aug 2.9 04:10:08 17° NNW 04:11:04 18° N 04:13:25 10° NE visible
07 Aug 3.8 03:14:18 15° NNE 03:14:18 15° NNE 03:15:06 10° NE visible
07 Aug 3.3 04:47:41 10° NW 04:49:50 17° N 04:52:01 10° NE visible
08 Aug 3.2 03:50:47 16° NNW 03:51:13 17° N 03:53:22 10° NE visible
08 Aug 2.9 05:25:56 10° NW 05:28:35 23° NNE 05:31:14 10° ENE visible
09 Aug 3.2 04:27:39 10° NW 04:29:59 19° N 04:32:21 10° ENE visible
10 Aug 3.5 03:31:48 16° NNE 03:31:48 16° NNE 03:33:32 10° NE visible
10 Aug 2.3 05:05:41 10° NW 05:08:38 33° NNE 05:11:35 10° E visible
11 Aug 2.9 04:08:43 18° NNW 04:10:07 23° NNE 04:12:46 10° ENE visible
12 Aug 4.1 03:13:36 11° NE 03:13:36 11° NE 03:13:53 10° ENE visible
12 Aug 1.2 04:45:56 13° NW 04:48:37 57° NNE 04:51:46 10° ESE visible
13 Aug 2.8 03:51:12 26° ENE 03:51:12 26° ENE 03:53:06 10° E visible
13 Aug 1.3 05:23:52 10° WNW 05:26:48 34° SW 05:29:44 10° SSE visible
